Regional Weather Roundup
Issued by NWS Goodland, KS

Home | Current Version | Previous Version | Graphics & Text | Print | Product List | Glossary On
Versions: 1 2 3 4 5 6 7 8 9 10 11 12 13 14 15 16 17 18 19 20 21 22 23 24 25 26 27 28 29 30 31 32 33 34 35 36 37 38 39 40 41 42 43 44 45 46 47 48 49 50
000
ASUS43 KGLD 052259
RWRGLD

GOODLAND FORECAST AREA HOURLY WEATHER ROUNDUP
NATIONAL WEATHER SERVICE GOODLAND KS
400 PM MST MON DEC 05 2016

...OFFICIAL OBSERVATIONS...

CITY           SKY/WX    TMP DP  RH WIND       PRES   REMARKS
GOODLAND KS    CLOUDY    44   7  21 N21G35    29.68R HAZE
HILL CITY KS   CLEAR     49  29  46 N5        29.66R
IMPERIAL NEB   MOCLDY    40  13  33 NW29G44   29.74R
MCCOOK NEB     CLEAR     50  13  22 NW20      29.66R
AKRON CO       CLEAR     34  -7  17 N29G46    29.73R
BURLINGTON CO  CLOUDY    45   9  23 N28G41    29.69R
LIMON CO       CLEAR     37  10  32 N28G35    29.69R
$$

...UNOFFICIAL OBSERVATIONS...

CITY           SKY/WX    TMP DP  RH WIND       PRES   REMARKS
COLBY KS       PTCLDY    48  21  34 N18G24    29.68R
LENORA KS        N/A     51  32  48 MISG        N/A
NORTON KS      PTCLDY    48  25  40 CALM      29.65R
SHARON SPRINGS   N/A     53  24  32 NE15G24     N/A
TRENTON NEB      N/A     47  32  56 NW15        N/A
KIT CARSON CO    N/A     49  25  38 MISG        N/A
YUMA CO        FAIR      32  12  43 N26G35    29.75R WCI  18
$$




USA.gov is the U.S. government's official web portal to all federal, state and local government web resources and services.